GFSWCAN_850_dewp_072.txt.gz
Dewpoint
-2 -1 -0 0 0 0 0 -0 -1 0 1 0 0 -3 -2 -1 -1 1 1 1 1 1 -2 -3 -1 -1 -2 -3 -1 -4 -3 -2 3 3 4 5 5 1 -1 3 6 7 7 8 7 8 7 -1 -1 0 1 -1 -2 -3
-0 -0 0 0 0 1 1 0 -1 0 0 0 0 -1 -2 -1 -0 0 0 1 1 1 1 1 -2 -0 1 -1 -5 -5 -4 -1 2 3 3 3 6 6 1 3 2 5 7 7 5 6 4 1 -1 -1 -1 -0 0 0
-0 0 0 1 1 0 -0 0 0 0 -1 0 -0 -1 -1 -1 -1 -2 0 1 2 2 2 2 1 0 1 0 -1 -3 -4 -5 0 1 1 3 4 2 7 4 0 1 2 3 1 2 4 1 1 0 -0 1 1 -0
-0 0 0 -0 0 -0 0 0 -0 0 -1 -1 0 -0 -0 -0 -1 0 0 1 2 1 2 0 -1 -0 1 1 1 1 -1 -3 -1 1 3 5 6 -0 5 1 1 -0 0 1 1 -1 -1 -1 -2 1 1 1 1 0
-0 0 0 -0 0 -0 1 0 0 -0 -1 -1 0 0 0 0 -1 -0 0 1 1 -1 1 1 -1 -3 0 0 1 2 1 3 3 4 6 5 2 2 4 3 3 -4 -2 3 6 -0 1 1 1 1 3 1 3 2
0 -0 -1 -0 0 -0 -0 -0 -1 -0 -1 -0 0 1 0 0 0 0 1 1 1 0 0 2 -2 -0 -0 0 1 0 0 1 4 4 4 1 -1 1 8 4 -1 -3 -6 -6 1 -0 2 4 2 1 1 1 3 3
0 -0 1 0 -0 0 0 0 0 0 0 0 0 0 0 1 1 1 1 0 1 -0 -1 1 0 0 -0 0 2 3 2 3 5 4 5 3 1 -0 7 4 -4 -5 -6 -5 -5 1 3 3 3 2 2 2 1 2
0 0 0 0 -1 -0 -0 -0 -0 0 1 0 0 -0 -0 0 0 -1 -1 -1 -1 -1 -1 1 1 0 1 2 2 0 2 2 2 4 4 5 3 3 4 -2 -2 -2 -3 2 4 3 3 3 3 2 1 1 1 1
-0 0 0 0 -1 0 0 0 -0 -1 -0 -0 -0 -0 -0 -1 -0 1 0 -0 -0 -1 -1 2 0 3 2 1 1 1 1 3 3 5 5 5 6 6 2 -1 -2 -2 -3 -2 2 2 2 2 2 1 1 1 1 0
-0 -0 -0 0 0 0 0 -1 -0 -0 -0 -0 -1 -2 -0 -1 -2 -1 -2 -0 -1 -1 0 1 -1 2 0 0 3 3 2 4 5 5 2 6 5 0 3 3 4 4 3 3 3 3 2 2 2 1 1 1 0 -0
-1 -1 -1 -0 -1 -1 -1 -1 -0 -0 -0 -1 -0 -0 -2 0 1 0 -1 -0 -1 -0 -1 -1 0 2 0 1 2 3 5 5 6 5 6 5 5 3 3 4 4 3 3 3 3 2 3 2 2 1 1 0 -0 -1
-1 -1 -1 -1 -1 -1 -1 -0 -1 -2 -1 -1 -1 -1 0 0 0 1 -0 0 -0 -1 -1 2 1 1 0 -0 2 4 4 5 6 5 6 5 2 1 1 2 2 3 2 1 1 2 1 1 1 -0 -1 -1 -1 -2
-1 -1 -1 -2 -2 -2 -1 -2 -2 -2 -2 -0 -2 -1 -1 -0 2 1 1 1 2 2 2 1 2 1 0 0 2 3 4 5 3 5 5 3 0 -1 -1 -0 0 0 1 0 -0 -0 -0 -1 -2 -2 -2 -3 -3 -3
-4 -3 -3 -4 -3 -1 -1 -2 -2 -1 1 0 1 1 2 2 2 1 2 3 1 3 1 1 2 2 1 1 2 4 3 4 6 6 4 0 -2 -3 -3 -3 -2 -3 -3 -3 -3 -3 -3 -4 -4 -4 -5 -5 -5 -5
-4 -5 -5 -4 -3 -2 -1 -1 -3 -2 -1 -1 -2 -0 -1 -1 -2 -2 -1 -0 -1 1 2 3 3 3 3 3 4 4 5 4 2 2 0 -2 -3 -4 -5 -5 -5 -5 -5 -5 -6 -6 -6 -6 -6 -7 -6 -6 -6 -6
-2 -1 -2 -2 -2 -0 -0 -1 -1 -1 -3 -4 -5 -2 -3 -2 -4 -4 -4 -4 -2 0 2 2 4 4 3 4 3 2 3 1 -0 -1 -3 -4 -4 -5 -5 -5 -5 -6 -6 -6 -6 -7 -7 -7 -7 -7 -6 -7 -7 -7
-1 -2 -3 -2 -2 -0 0 -0 -2 -4 -4 -4 -3 -5 -4 -5 -5 -6 -6 -5 -3 -1 2 3 1 2 2 1 -1 -2 -1 -1 -2 -3 -4 -5 -5 -5 -5 -6 -6 -6 -7 -7 -7 -7 -7 -7 -7 -7 -8 -9 -10 -11
-1 -3 -3 -4 -2 -2 -5 -2 -4 -5 -5 -5 -6 -5 -6 -6 -6 -6 -6 -6 -4 -2 -3 -2 -4 -3 -2 -1 -3 -2 -4 -4 -4 -4 -5 -5 -5 -6 -6 -6 -7 -7 -7 -8 -8 -8 -9 -9 -10 -10 -11 -11 -11 -10
-3 -2 -2 -2 -3 -4 -4 -4 -4 -6 -6 -6 -6 -6 -6 -7 -7 -8 -7 -6 -6 -7 -7 -8 -7 -6 -6 -7 -6 -5 -4 -5 -6 -6 -7 -7 -7 -7 -7 -7 -8 -8 -8 -8 -9 -9 -9 -9 -9 -9 -10 -10 -11 -11
-1 -1 -1 -2 -2 -3 -2 -3 -4 -5 -5 -6 -6 -7 -8 -8 -8 -8 -9 -8 -9 -10 -9 -9 -9 -9 -9 -8 -7 -5 -6 -7 -7 -7 -8 -8 -8 -8 -8 -9 -9 -9 -10 -10 -10 -10 -10 -11 -11 -11 -12 -12 -12 -12
-3 -4 -5 -5 -4 -4 -3 -3 -3 -4 -4 -4 -5 -6 -6 -7 -9 -10 -10 -11 -11 -10 -10 -10 -10 -10 -10 -9 -8 -7 -6 -7 -8 -9 -9 -9 -9 -10 -10 -10 -10 -11 -11 -11 -12 -12 -12 -13 -13 -13 -14 -14 -14 -15
-1 -1 -5 -6 -4 -3 -3 -3 -3 -3 -3 -4 -4 -6 -6 -8 -8 -9 -12 -12 -11 -11 -11 -11 -11 -12 -11 -11 -11 -10 -9 -9 -10 -10 -10 -11 -11 -11 -11 -12 -12 -12 -13 -13 -13 -14 -14 -14 -14 -14 -15 -19 -23 -19
-7 -8 -7 -4 -4 -3 -3 -2 -3 -2 -2 -4 -5 -6 -6 -7 -8 -10 -11 -11 -11 -11 -12 -12 -12 -12 -12 -12 -12 -12 -11 -11 -12 -12 -12 -12 -13 -13 -13 -13 -14 -15 -15 -15 -17 -19 -20 -18 -18 -18 -16 -16 -16 -17
-10 -8 -5 -4 -4 -4 -4 -5 -5 -6 -7 -7 -7 -7 -8 -8 -10 -11 -11 -11 -11 -12 -12 -11 -12 -13 -13 -13 -13 -13 -13 -13 -13 -14 -14 -14 -14 -14 -15 -16 -16 -17 -17 -17 -18 -18 -19 -19 -19 -18 -17 -17 -17 -18
-9 -8 -6 -6 -6 -5 -6 -6 -6 -7 -6 -7 -8 -7 -8 -9 -10 -11 -11 -11 -12 -12 -13 -13 -13 -13 -14 -14 -14 -14 -14 -14 -13 -14 -14 -17 -20 -20 -20 -18 -17 -16 -16 -17 -17 -17 -18 -18 -21 -25 -27 -21 -18 -19
-7 -9 -9 -8 -7 -7 -7 -6 -6 -6 -7 -8 -8 -9 -9 -10 -10 -10 -12 -12 -13 -13 -13 -14 -14 -15 -15 -15 -15 -15 -15 -14 -14 -14 -15 -14 -14 -14 -15 -17 -19 -20 -18 -17 -17 -18 -20 -21 -20 -18 -19 -23 -24 -20
-7 -8 -10 -10 -8 -8 -8 -9 -10 -10 -9 -8 -9 -9 -10 -10 -11 -12 -13 -13 -14 -14 -14 -14 -15 -15 -15 -15 -15 -17 -22 -27 -29 -28 -28 -25 -24 -23 -22 -22 -21 -20 -21 -23 -20 -18 -19 -19 -20 -19 -19 -21 -25 -25
-11 -11 -10 -11 -12 -12 -11 -11 -11 -11 -11 -12 -11 -11 -11 -11 -12 -13 -14 -15 -15 -15 -15 -15 -15 -15 -16 -16 -19 -23 -28 -28 -26 -26 -28 -28 -27 -27 -28 -29 -28 -28 -28 -27 -27 -26 -24 -22 -21 -25 -25 -25 -27 -25
-10 -11 -14 -13 -13 -14 -13 -12 -13 -14 -13 -12 -11 -13 -15 -14 -13 -14 -14 -15 -15 -15 -15 -15 -15 -15 -17 -22 -21 -19 -16 -16 -17 -16 -16 -17 -18 -22 -26 -27 -28 -24 -20 -24 -27 -28 -27 -27 -27 -27 -27 -24 -22 -22
-10 -11 -13 -14 -13 -13 -14 -13 -13 -13 -14 -14 -15 -15 -16 -15 -15 -15 -14 -14 -15 -15 -15 -15 -15 -16 -16 -22 -28 -30 -29 -22 -19 -16 -16 -18 -22 -24 -26 -27 -27 -28 -25 -24 -23 -23 -26 -24 -23 -23 -23 -24 -25 -27
-10 -11 -13 -14 -14 -13 -14 -13 -13 -13 -13 -13 -13 -15 -15 -16 -17 -16 -16 -16 -16 -16 -16 -16 -16 -16 -16 -16 -16 -19 -27 -29 -29 -29 -29 -28 -28 -28 -29 -29 -28 -27 -26 -26 -26 -26 -26 -23 -21 -22 -22 -25 -26 -27
-10 -11 -13 -13 -13 -13 -12 -11 -12 -12 -12 -13 -14 -14 -13 -13 -14 -16 -16 -16 -16 -16 -16 -16 -17 -20 -25 -28 -30 -29 -29 -28 -28 -29 -29 -29 -29 -29 -28 -28 -28 -28 -27 -27 -26 -26 -26 -26 -26 -25 -25 -25 -25 -26
-10 -11 -12 -12 -12 -12 -12 -10 -13 -13 -12 -13 -13 -13 -13 -13 -14 -16 -16 -16 -16 -16 -16 -17 -18 -20 -25 -29 -29 -28 -28 -28 -29 -30 -30 -30 -29 -28 -28 -26 -27 -27 -27 -27 -26 -26 -26 -26 -27 -26 -26 -26 -26 -26

GFSWCAN_850_dewp_075.txt.gz
Dewpoint
-6 -5 -3 -1 -0 -0 0 0 0 0 0 0 0 -0 -1 -2 -0 0 2 1 1 1 0 -2 -2 -2 -2 -2 -0 -2 -1 -1 -0 1 2 3 3 3 2 3 4 5 5 6 6 7 9 1 -1 1 1 -1 -4 -2
-6 -4 -1 -0 0 0 0 1 1 0 -0 0 0 0 -0 -1 -1 0 1 0 1 1 1 -0 -1 -1 -2 -1 -1 -3 -3 -3 -1 2 3 3 3 2 1 3 3 6 6 6 6 5 3 3 -0 1 -1 -0 1 -0
-3 -1 -0 0 0 0 0 -1 -1 -0 1 -0 0 0 0 -0 -1 0 -0 -0 1 2 2 1 1 -0 -1 -1 -1 1 -0 -2 -3 -2 3 3 2 2 2 2 3 3 4 6 4 4 3 4 2 2 2 -0 0 0
-1 -0 -0 0 0 0 -0 0 0 -1 0 0 -1 -0 1 0 -1 -0 -0 -0 1 0 1 2 -0 0 -1 -2 -0 0 1 1 0 -3 2 4 4 -0 2 2 2 2 3 4 4 1 0 -0 0 1 1 2 0 -0
-0 0 0 0 0 -0 0 0 1 -0 1 -0 1 1 0 -0 -1 0 -0 0 1 1 2 1 1 1 -1 -2 0 1 1 2 1 2 2 4 3 3 3 2 3 -1 1 4 3 -0 0 1 -1 -1 -1 3 2 2
-0 0 1 -0 -0 -0 -0 -0 -0 -0 -0 1 0 -0 -0 -1 -0 0 0 0 1 0 -0 1 -1 -1 -0 -0 -1 -2 1 1 1 3 3 3 2 4 4 3 1 -2 -2 -3 0 1 2 3 2 2 1 2 2 3
0 0 0 0 0 -1 0 -0 -1 -1 -0 0 -0 -0 -0 -0 0 0 0 0 1 1 -1 1 1 -0 -0 -1 -0 1 1 1 1 3 3 3 3 2 4 2 -1 -2 -3 -5 -5 -3 3 3 3 2 2 1 1 2
0 0 0 -0 0 0 -1 -1 -1 0 0 0 0 0 -0 -0 0 1 -1 -0 1 1 -1 0 -0 1 0 1 2 1 2 2 3 2 3 4 3 4 3 -0 -3 -4 -4 -0 2 2 2 3 3 2 1 1 1 1
0 0 0 -1 -0 1 0 0 1 0 1 0 0 1 0 0 -0 1 1 1 1 0 -0 -1 -0 1 2 2 1 1 2 2 2 0 3 3 4 4 3 1 -3 -4 -4 -3 3 2 2 2 1 1 1 1 0 -0
0 0 0 0 0 0 -0 0 -0 -0 0 -0 -0 -0 -0 1 1 1 1 0 0 -0 0 -1 1 0 0 1 1 2 2 2 2 2 1 3 3 4 3 4 4 3 2 1 2 2 2 1 1 1 1 0 -0 -1
-1 -1 -1 -1 -1 -0 -0 -0 -0 -0 0 -1 -1 -0 0 -0 -2 -1 -0 -0 -1 -0 -0 -0 0 0 -0 1 -0 1 2 2 2 4 2 4 4 3 2 2 2 3 3 3 3 2 2 2 1 1 0 -0 -1 -1
-1 -1 -1 -0 -0 0 -0 -1 -1 -2 -3 -3 -2 0 -0 0 -0 -1 -0 -0 -1 -1 -0 1 1 1 0 0 -1 1 3 2 4 3 4 5 1 -0 0 1 1 2 2 2 2 2 2 1 1 0 -1 -1 -2 -3
-1 -1 -0 -0 -0 -0 -2 -3 -3 -3 -2 -1 -2 -1 -1 -1 0 -2 -0 -0 -1 -1 2 1 -0 -0 0 0 0 1 2 4 2 4 4 1 -1 -2 -2 -1 -0 0 1 1 1 1 1 -0 -1 -1 -2 -3 -3 -3
-2 -1 -1 -2 -1 -1 -1 -1 -1 -0 -1 0 1 0 1 -1 -0 -1 0 1 -0 2 1 -0 1 0 0 -0 1 3 2 3 5 4 1 -1 -3 -4 -4 -3 -2 -3 -2 -2 -3 -3 -3 -3 -4 -4 -4 -4 -4 -5
-4 -3 -2 -2 -1 -2 -5 -6 -5 -5 -4 -3 -4 -1 -2 -2 -4 -4 -3 -2 -3 -0 1 1 2 2 1 1 1 2 3 2 0 -0 -1 -3 -4 -5 -5 -5 -5 -5 -5 -6 -6 -6 -6 -6 -6 -7 -6 -6 -6 -6
-3 -3 -3 -4 -3 -2 -4 -7 -6 -5 -5 -6 -6 -3 -4 -4 -5 -6 -6 -5 -4 -2 1 3 2 2 2 1 -0 -0 1 -1 -2 -2 -3 -5 -5 -5 -6 -6 -6 -7 -7 -7 -7 -7 -7 -7 -7 -8 -7 -7 -8 -8
-3 -2 -2 -2 -2 -2 -3 -4 -6 -6 -4 -4 -5 -7 -5 -6 -6 -6 -6 -6 -4 -3 1 0 0 1 0 -1 -2 -3 -3 -3 -4 -4 -5 -5 -6 -6 -6 -7 -7 -7 -8 -8 -8 -8 -8 -8 -7 -8 -9 -9 -9 -10
-3 -3 -4 -3 -1 -3 -6 -5 -6 -6 -6 -6 -6 -6 -7 -7 -8 -8 -7 -6 -5 -2 -3 -3 -4 -4 -4 -3 -4 -4 -5 -5 -5 -5 -6 -6 -6 -7 -7 -7 -8 -8 -8 -8 -8 -8 -8 -9 -10 -11 -11 -12 -12 -12
-2 -2 -2 -3 -2 -5 -5 -5 -6 -6 -6 -6 -7 -7 -7 -7 -8 -9 -8 -7 -9 -9 -9 -9 -8 -7 -7 -7 -7 -6 -6 -7 -7 -7 -7 -7 -7 -7 -8 -8 -8 -9 -9 -9 -9 -9 -9 -10 -10 -10 -11 -11 -12 -12
-1 -3 -2 -2 -3 -5 -4 -4 -5 -5 -5 -6 -7 -8 -9 -9 -9 -10 -11 -11 -11 -11 -10 -9 -9 -10 -9 -9 -8 -6 -7 -7 -8 -8 -8 -9 -8 -8 -9 -9 -10 -9 -9 -9 -9 -10 -10 -10 -10 -11 -11 -12 -13 -13
-4 -5 -5 -6 -5 -4 -3 -3 -4 -5 -5 -5 -6 -8 -7 -10 -12 -12 -12 -13 -12 -10 -10 -10 -11 -11 -10 -9 -8 -7 -8 -8 -9 -9 -10 -10 -10 -10 -10 -10 -10 -10 -11 -11 -11 -12 -12 -12 -13 -13 -14 -14 -14 -14
-4 -6 -5 -5 -4 -3 -2 -3 -3 -4 -4 -6 -5 -7 -7 -8 -9 -12 -13 -12 -11 -11 -11 -12 -12 -12 -11 -11 -10 -9 -9 -9 -10 -10 -11 -10 -11 -11 -12 -12 -11 -12 -12 -13 -13 -14 -14 -16 -19 -19 -17 -16 -17 -18
-8 -8 -6 -5 -4 -4 -4 -4 -3 -3 -3 -3 -5 -5 -6 -7 -9 -12 -11 -11 -12 -12 -12 -12 -13 -13 -12 -12 -11 -11 -11 -10 -11 -11 -12 -12 -13 -13 -13 -13 -13 -16 -18 -18 -18 -19 -18 -17 -16 -17 -17 -19 -20 -20
-9 -7 -6 -5 -5 -5 -6 -6 -5 -6 -7 -7 -7 -7 -7 -7 -10 -11 -11 -12 -12 -12 -12 -13 -13 -13 -13 -13 -13 -13 -13 -12 -13 -13 -13 -13 -14 -14 -14 -16 -18 -19 -20 -21 -22 -22 -21 -21 -20 -19 -18 -18 -19 -20
-11 -9 -7 -8 -7 -6 -5 -6 -7 -7 -9 -8 -9 -8 -7 -10 -10 -11 -12 -12 -12 -13 -13 -13 -14 -14 -14 -14 -14 -14 -14 -14 -14 -15 -14 -13 -14 -16 -18 -18 -17 -16 -18 -21 -21 -23 -24 -25 -25 -23 -22 -21 -20 -20
-9 -9 -9 -7 -7 -7 -7 -6 -6 -7 -7 -8 -7 -8 -11 -12 -13 -11 -12 -13 -14 -14 -14 -14 -14 -14 -15 -15 -14 -14 -14 -14 -13 -14 -14 -15 -16 -22 -21 -19 -18 -17 -17 -19 -23 -24 -24 -22 -23 -24 -25 -24 -23 -23
-9 -9 -10 -10 -9 -8 -10 -10 -11 -11 -11 -10 -9 -13 -12 -13 -13 -12 -14 -14 -14 -14 -15 -14 -14 -14 -15 -15 -15 -15 -18 -20 -22 -20 -17 -17 -19 -22 -24 -25 -24 -23 -20 -21 -21 -22 -24 -23 -23 -24 -27 -28 -29 -29
-12 -11 -11 -12 -12 -12 -13 -13 -13 -13 -13 -12 -11 -14 -15 -14 -13 -14 -14 -15 -15 -15 -15 -15 -15 -16 -16 -16 -18 -19 -20 -20 -21 -26 -28 -28 -28 -28 -28 -28 -28 -27 -27 -27 -27 -27 -27 -27 -26 -27 -28 -28 -29 -28
-10 -12 -14 -15 -14 -13 -12 -14 -13 -13 -14 -12 -13 -14 -14 -14 -14 -14 -15 -15 -15 -15 -15 -15 -15 -15 -15 -16 -17 -16 -16 -16 -16 -16 -20 -23 -23 -25 -27 -27 -28 -27 -27 -28 -28 -28 -27 -27 -27 -27 -28 -28 -28 -29
-10 -12 -14 -14 -16 -15 -13 -12 -14 -15 -16 -16 -15 -15 -15 -15 -14 -14 -14 -15 -15 -15 -15 -15 -15 -16 -23 -29 -28 -21 -19 -19 -18 -17 -19 -24 -26 -27 -28 -28 -28 -27 -27 -27 -27 -27 -27 -26 -25 -26 -27 -27 -27 -27
-11 -13 -14 -14 -13 -14 -14 -15 -15 -15 -14 -15 -17 -17 -16 -16 -16 -15 -15 -15 -15 -15 -15 -15 -16 -16 -16 -19 -23 -27 -29 -28 -28 -28 -29 -29 -28 -29 -29 -29 -29 -29 -28 -28 -28 -28 -27 -27 -27 -26 -26 -26 -27 -27
-10 -12 -14 -15 -13 -14 -13 -12 -12 -12 -13 -14 -15 -15 -14 -14 -15 -16 -16 -15 -15 -16 -16 -16 -15 -18 -26 -29 -31 -30 -29 -29 -29 -29 -30 -30 -29 -29 -29 -29 -29 -29 -29 -29 -28 -28 -28 -27 -27 -26 -26 -26 -26 -26
-11 -12 -13 -13 -12 -12 -12 -11 -13 -12 -12 -12 -13 -13 -14 -14 -15 -16 -16 -16 -16 -16 -16 -16 -17 -20 -26 -30 -30 -28 -28 -29 -29 -30 -30 -29 -29 -28 -28 -28 -29 -28 -28 -28 -28 -28 -27 -27 -27 -27 -27 -27 -27 -27

GFSWCAN_850_dewp_078.txt.gz
Dewpoint
-3 -4 -4 -5 -6 -4 -3 -1 -1 -1 -1 -1 -1 -2 -2 -3 -1 0 0 1 1 1 1 -1 -1 -0 -1 -1 -0 -2 -1 -1 -0 0 1 1 1 1 3 2 4 6 6 7 7 7 8 3 3 1 1 -2 -0 -1
-3 -3 -4 -5 -2 -1 -1 -0 -0 -0 0 -0 -1 -0 -1 -2 -3 -1 0 0 1 1 1 -1 -2 -2 -2 -2 -2 -2 -1 -2 -1 0 0 1 1 1 2 3 -0 4 6 6 5 5 3 3 4 3 2 2 1 2
-3 -5 -2 -1 -0 -0 -0 -0 0 0 0 0 0 0 -0 -0 -2 -2 0 -0 1 1 1 -0 -0 -2 -2 -2 -1 -0 -0 -1 -0 0 1 1 1 1 2 1 0 3 4 5 5 3 3 2 0 1 1 2 1 1
-2 -1 -0 -0 0 -0 0 -0 -0 -0 -0 -0 0 0 -0 -0 -0 -1 0 -0 1 0 1 1 -0 -1 -2 -0 -1 -2 -1 -1 -1 0 1 1 1 1 1 -1 2 0 3 4 3 1 0 -0 0 -2 -0 1 2 2
-1 -0 0 1 0 -0 -0 -1 -0 0 -0 -0 -0 1 -0 0 0 -0 -0 -0 0 1 1 1 1 0 -2 0 -1 -1 -0 -1 -1 1 2 2 2 2 2 2 2 0 2 3 3 -1 -1 -1 -3 -4 -1 -1 1 1
-0 0 0 0 -0 -0 0 0 1 1 0 -1 -0 1 0 0 0 -0 -0 -0 0 1 2 2 -0 0 -0 -0 -1 -1 1 0 1 2 2 3 3 3 3 4 0 -1 -2 -2 -0 -2 -1 -2 2 1 0 -0 1 2
-1 0 0 0 -1 -0 -1 -1 -0 0 0 -1 1 0 0 0 -0 -0 -0 -2 -0 1 2 1 1 0 -0 -0 -1 0 0 0 0 2 2 3 3 2 2 4 -0 -1 -1 -0 -3 -1 4 2 2 2 2 1 2 2
-0 0 0 0 -1 -1 -0 -0 0 0 0 1 0 0 0 0 -0 -1 -1 -4 1 0 0 1 2 2 2 2 2 0 1 2 2 2 3 1 2 3 3 2 2 2 1 -1 0 1 1 3 2 2 1 1 1 1
0 -0 0 0 -1 0 -0 -0 -0 -0 -0 -0 -0 -0 -0 0 -0 0 -0 0 1 1 -0 -2 -0 3 2 2 2 2 2 2 1 -1 1 0 2 3 2 3 3 2 3 -1 3 3 2 2 1 1 1 1 0 -0
-0 0 -0 0 0 0 0 0 1 0 0 -0 -0 -0 -0 0 1 1 1 0 1 0 -1 -3 -0 1 1 1 0 1 1 -1 2 1 1 -0 1 0 2 2 2 2 3 1 3 2 2 1 1 1 0 -0 -1 -1
-0 -0 -0 -0 0 1 -0 -0 -0 0 -0 -1 -0 -1 0 1 0 -0 -0 0 0 -0 -1 -0 -1 -0 0 -0 -1 1 1 1 2 1 1 2 2 2 2 2 2 1 1 2 2 1 2 1 1 0 -1 -1 -1 -2
-1 -0 -0 -0 -0 -0 0 -1 -2 -2 -2 -1 -1 -0 -0 -1 -1 -2 -2 -1 -2 -1 -1 -1 1 -1 -0 -0 -2 -1 2 2 2 1 2 2 1 -1 -0 1 1 -0 1 2 2 2 1 1 0 -0 -1 -2 -2 -3
-0 -0 -0 -0 0 -0 -1 -1 -1 -3 -3 -4 -3 -1 -2 -1 -2 -4 -1 -0 0 -1 1 0 0 -1 -0 -0 -1 0 2 2 2 3 3 -0 -2 -3 -2 -1 -1 -2 1 1 0 0 -0 -1 -2 -2 -3 -4 -4 -5
-1 -1 -1 -1 -1 -0 -1 -2 -3 -5 -3 -2 -3 -4 -5 -4 -2 -3 -1 0 -2 -0 0 -0 -1 -0 -1 -0 -0 2 2 2 4 3 0 -2 -4 -4 -4 -3 -3 -4 -2 -2 -2 -2 -3 -3 -4 -5 -5 -5 -4 -5
-1 -2 -2 -2 -3 -4 -6 -6 -6 -5 -6 -5 -5 -3 -3 -4 -5 -5 -4 -4 -4 -1 1 -0 1 1 0 1 1 2 2 0 -1 -2 -2 -4 -5 -5 -5 -5 -5 -5 -5 -5 -5 -5 -6 -6 -6 -7 -6 -6 -6 -7
-3 -3 -3 -2 -5 -6 -6 -6 -7 -6 -6 -8 -7 -6 -6 -5 -6 -6 -6 -6 -5 -3 0 0 1 2 2 -1 -1 -2 -1 -2 -3 -4 -5 -5 -6 -6 -7 -7 -7 -7 -7 -7 -8 -8 -8 -8 -8 -8 -8 -7 -7 -7
-3 -2 -2 -4 -6 -7 -7 -8 -8 -7 -5 -6 -7 -7 -7 -7 -7 -7 -7 -7 -5 -3 -0 -0 -2 -2 -2 -3 -3 -4 -4 -4 -5 -5 -6 -6 -7 -7 -8 -8 -8 -8 -8 -8 -8 -8 -8 -8 -8 -8 -9 -9 -9 -9
-5 -4 -6 -4 -3 -5 -8 -8 -8 -8 -7 -7 -7 -7 -8 -9 -9 -9 -9 -7 -6 -4 -6 -4 -7 -6 -6 -5 -6 -5 -6 -7 -6 -6 -7 -7 -7 -8 -8 -8 -9 -9 -9 -9 -9 -9 -9 -8 -8 -10 -10 -10 -10 -11
-2 -3 -3 -3 -4 -6 -7 -6 -8 -7 -7 -7 -8 -8 -8 -10 -10 -10 -9 -7 -11 -11 -11 -9 -10 -9 -9 -8 -8 -7 -7 -7 -8 -8 -8 -8 -8 -8 -9 -9 -9 -9 -9 -9 -9 -10 -10 -10 -10 -10 -11 -11 -12 -12
-4 -4 -3 -3 -4 -5 -4 -5 -7 -7 -6 -8 -9 -10 -11 -11 -12 -12 -13 -12 -12 -12 -11 -11 -11 -11 -11 -11 -9 -7 -8 -8 -9 -9 -10 -9 -9 -9 -9 -9 -9 -9 -9 -9 -10 -10 -10 -11 -11 -11 -12 -13 -13 -15
-4 -4 -4 -4 -5 -4 -3 -4 -5 -6 -5 -6 -7 -8 -8 -11 -13 -13 -13 -15 -13 -11 -11 -12 -12 -12 -11 -9 -8 -8 -8 -9 -9 -10 -11 -11 -10 -10 -10 -10 -10 -10 -10 -10 -10 -11 -11 -11 -12 -13 -14 -15 -16 -17
-6 -5 -6 -5 -4 -3 -3 -4 -4 -4 -6 -6 -6 -8 -8 -9 -10 -13 -14 -13 -12 -12 -12 -12 -13 -12 -11 -10 -10 -9 -9 -9 -10 -10 -10 -10 -11 -11 -11 -11 -10 -11 -11 -12 -12 -13 -13 -14 -15 -16 -19 -19 -19 -19
-8 -7 -5 -5 -5 -5 -4 -3 -3 -4 -4 -4 -6 -6 -7 -9 -11 -15 -11 -12 -12 -13 -13 -13 -13 -13 -12 -12 -11 -11 -11 -10 -11 -11 -11 -11 -12 -12 -12 -12 -12 -11 -13 -15 -17 -19 -20 -20 -20 -21 -21 -21 -22 -22
-8 -7 -7 -6 -6 -7 -7 -6 -7 -7 -8 -7 -7 -7 -7 -9 -12 -13 -12 -12 -13 -13 -13 -13 -13 -13 -12 -12 -13 -13 -13 -12 -12 -13 -13 -12 -13 -13 -13 -13 -17 -20 -21 -20 -21 -21 -20 -20 -20 -21 -22 -23 -23 -25
-11 -10 -9 -11 -8 -8 -10 -11 -10 -10 -11 -10 -10 -9 -7 -12 -11 -12 -13 -13 -13 -14 -14 -14 -13 -14 -14 -14 -14 -14 -13 -13 -13 -13 -14 -13 -13 -14 -16 -21 -22 -21 -21 -24 -23 -22 -21 -20 -21 -22 -22 -24 -27 -28
-11 -9 -10 -10 -9 -10 -9 -10 -10 -11 -11 -10 -10 -9 -13 -15 -16 -13 -13 -14 -14 -14 -14 -14 -14 -14 -14 -14 -14 -14 -14 -14 -13 -13 -15 -15 -16 -21 -21 -20 -21 -21 -22 -24 -26 -27 -26 -24 -23 -23 -24 -25 -26 -27
-12 -13 -12 -12 -11 -10 -13 -13 -13 -15 -15 -13 -13 -17 -17 -16 -15 -13 -14 -15 -15 -15 -15 -14 -14 -14 -15 -15 -15 -15 -14 -14 -13 -14 -15 -18 -21 -22 -21 -21 -21 -21 -20 -22 -25 -25 -25 -24 -25 -26 -28 -29 -28 -28
-12 -13 -15 -14 -14 -13 -17 -17 -16 -16 -16 -13 -15 -18 -18 -18 -16 -14 -15 -15 -15 -15 -15 -15 -15 -15 -16 -16 -16 -17 -20 -25 -26 -24 -25 -26 -27 -26 -26 -27 -25 -23 -22 -23 -24 -25 -26 -27 -28 -29 -29 -30 -30 -29
-12 -14 -15 -17 -15 -14 -13 -17 -16 -15 -14 -13 -18 -18 -15 -14 -15 -15 -15 -15 -15 -15 -15 -15 -15 -15 -15 -15 -16 -17 -18 -17 -19 -22 -26 -27 -27 -25 -27 -26 -26 -27 -28 -28 -27 -26 -26 -27 -28 -28 -29 -28 -28 -29
-13 -15 -15 -15 -19 -17 -13 -14 -14 -16 -16 -15 -15 -15 -15 -15 -14 -15 -15 -15 -15 -15 -15 -15 -16 -16 -20 -21 -19 -18 -18 -18 -18 -18 -22 -27 -27 -28 -27 -28 -29 -28 -27 -26 -27 -27 -27 -27 -27 -27 -27 -26 -26 -26
-12 -15 -14 -14 -15 -13 -13 -15 -16 -17 -17 -17 -17 -17 -16 -16 -15 -15 -15 -15 -15 -15 -15 -15 -15 -15 -17 -22 -26 -28 -28 -27 -27 -28 -29 -29 -29 -29 -29 -29 -28 -28 -28 -28 -27 -28 -28 -28 -27 -28 -27 -27 -27 -27
-13 -14 -15 -18 -14 -13 -14 -13 -13 -14 -15 -15 -16 -16 -15 -15 -16 -16 -16 -16 -16 -16 -16 -16 -16 -16 -23 -30 -30 -29 -29 -29 -29 -30 -30 -30 -29 -29 -28 -28 -28 -28 -29 -28 -28 -28 -27 -27 -27 -27 -27 -27 -27 -27
-14 -14 -14 -14 -13 -13 -12 -11 -13 -12 -13 -13 -14 -13 -14 -15 -16 -17 -16 -16 -16 -16 -16 -16 -17 -21 -27 -30 -30 -28 -28 -29 -29 -29 -29 -29 -28 -28 -28 -28 -28 -28 -28 -28 -28 -28 -28 -28 -28 -28 -28 -28 -28 -27

GFSWCAN_850_dewp_084.txt.gz
Dewpoint
-3 -2 -2 -2 -2 -2 -3 -3 -2 -3 -4 -5 -4 -2 -2 -1 -1 -1 -1 -1 -1 -0 -0 -1 -2 -2 -2 -1 1 -0 1 0 1 2 2 2 1 0 -0 -1 2 3 5 5 6 6 6 3 4 7 4 4 4 3
-3 -1 -2 -2 -2 -2 -2 -3 -4 -3 -4 -4 -6 -5 -4 -3 -2 -1 -1 -1 -0 -0 0 -1 -2 -2 -3 -2 -1 1 0 -1 -0 0 -1 -1 -0 -1 -0 1 -2 1 2 3 4 5 2 0 2 -0 1 5 3 3
-2 -2 -2 -2 -3 -4 -3 -4 -4 -4 -4 -5 -6 -5 -3 -2 -2 -1 -0 -0 -1 -0 -0 -0 1 -1 -2 -2 -2 -1 -1 -1 1 -1 1 0 -1 -1 -0 0 -2 -2 1 3 4 -0 1 -1 -3 -2 2 2 2 0
-2 -2 -2 -2 -1 -1 -2 -5 -2 -1 -1 -1 -2 -1 -2 -2 -2 -1 -1 -0 -0 -0 0 1 -2 -1 -2 -2 -1 -2 -3 -3 -2 -0 1 3 1 -1 -1 -2 -0 -1 -1 0 2 2 1 1 0 -1 -1 0 1 -1
-3 -1 -1 -0 -0 -1 -1 -1 -1 -0 -1 -1 -1 -0 -1 -1 -1 -1 -1 -1 -0 -1 1 0 -0 -1 -3 -2 -1 -1 -2 -1 -0 2 2 3 2 2 0 0 0 -1 -2 1 0 -2 0 -1 -2 0 0 1 0 3
-1 -1 0 0 0 0 -0 -0 0 -0 0 0 -0 -1 -1 -0 -1 -0 -0 -1 -1 -1 0 1 0 -0 -1 -1 -1 -1 -1 0 0 1 2 2 1 1 2 2 -1 -2 -3 -1 -0 -2 -1 -3 -4 2 3 2 2 3
-1 -1 -0 0 -0 -1 -1 -1 -1 -0 -1 -1 -0 0 -1 -0 -0 -0 -1 -1 -2 -0 -0 1 1 1 -1 -0 -0 0 0 -0 -0 2 2 2 2 2 2 3 -1 -1 -2 -2 -2 -2 -1 -6 -2 -1 2 2 3 2
0 0 -0 -0 -1 -0 -2 -1 -0 -1 -1 -1 -0 0 -1 0 -0 -0 -1 -2 -1 -0 -0 0 1 1 0 1 1 0 0 1 2 2 2 1 1 2 3 -0 -1 -2 -2 -2 -2 -1 -1 -1 1 2 2 3 2 -1
-0 -0 -0 -1 -1 -0 0 -0 0 0 0 0 -0 0 0 0 -1 -0 -0 -0 -1 -1 0 -1 2 2 1 1 1 1 1 1 2 2 2 1 0 2 1 0 -2 -3 -2 -2 -1 -1 -2 2 2 2 1 1 1 0
-0 -0 -1 -0 -0 -0 -0 -0 0 0 0 -0 0 -1 -1 -0 -0 -1 -0 -0 -0 -0 0 -1 -0 2 1 1 1 1 2 1 2 1 1 0 0 -1 -0 0 0 0 1 1 1 1 1 2 2 1 0 -0 -1 -2
-0 -1 -0 -0 -0 -0 -0 -1 -0 -0 -0 -0 -0 -0 -0 -0 -1 -0 -1 -0 -1 -0 -1 -1 -0 1 1 1 1 -0 1 0 1 -1 1 1 1 0 -1 -0 -0 1 1 1 1 1 1 2 1 -0 -1 -2 -3 -3
-0 -0 -0 -0 -0 0 -1 -1 -1 -1 -1 -0 -0 -0 -0 -0 -0 -0 -0 -0 0 0 -1 -1 -1 -0 0 1 1 0 0 0 1 -1 1 1 0 -2 -2 -2 -1 -1 -1 -1 0 1 1 1 0 -1 -2 -4 -4 -4
-0 0 -0 -1 0 0 0 -0 -1 -1 -2 -3 -2 -2 -3 -4 -1 -1 -1 0 0 -1 -1 -1 -1 -1 -0 -1 -0 0 1 0 -0 2 2 -1 -4 -4 -4 -3 -3 -3 -3 -2 -2 -2 -1 -2 -3 -3 -4 -5 -5 -6
-0 -1 -1 -1 -3 -3 -1 -2 -1 -2 -2 -5 -6 -6 -6 -8 -5 -5 -4 -2 -3 -2 -1 -1 -1 -1 -2 -1 -1 0 -2 1 3 3 -2 -4 -4 -5 -5 -5 -5 -5 -5 -5 -5 -5 -5 -5 -6 -7 -7 -7 -7 -7
-0 -1 -2 -3 -5 -5 -7 -7 -4 -5 -7 -7 -8 -6 -6 -6 -7 -7 -6 -5 -5 -2 -1 -1 -0 -1 -1 -0 -1 0 1 -1 -4 -5 -5 -6 -6 -6 -7 -7 -7 -7 -7 -7 -7 -7 -8 -9 -9 -10 -9 -8 -7 -7
-2 -3 -4 -6 -8 -8 -6 -9 -8 -8 -9 -9 -10 -8 -8 -8 -9 -9 -9 -7 -5 -3 -0 0 0 -0 -1 -3 -3 -4 -4 -5 -5 -5 -6 -7 -7 -8 -8 -8 -8 -8 -8 -9 -9 -9 -10 -9 -9 -10 -11 -9 -8 -8
-4 -5 -5 -4 -8 -9 -7 -9 -10 -9 -8 -9 -9 -10 -10 -10 -10 -10 -10 -9 -6 -4 -3 -3 -4 -4 -4 -4 -5 -6 -8 -6 -6 -7 -8 -8 -9 -9 -9 -9 -9 -9 -9 -10 -10 -10 -11 -11 -10 -11 -11 -11 -9 -9
-5 -4 -4 -4 -7 -8 -10 -10 -10 -9 -8 -9 -9 -10 -11 -11 -11 -11 -10 -9 -6 -5 -7 -7 -7 -8 -7 -6 -7 -7 -8 -9 -9 -9 -9 -9 -9 -9 -10 -10 -10 -10 -10 -11 -11 -11 -11 -11 -10 -11 -11 -11 -11 -11
-5 -5 -4 -4 -8 -9 -9 -9 -10 -9 -9 -10 -10 -10 -11 -11 -11 -11 -10 -9 -9 -8 -9 -9 -10 -10 -11 -10 -10 -9 -9 -9 -10 -10 -10 -10 -10 -10 -10 -10 -10 -11 -11 -11 -11 -11 -11 -11 -11 -11 -11 -10 -10 -11
-5 -6 -7 -6 -7 -8 -7 -7 -9 -9 -9 -10 -11 -13 -13 -12 -12 -12 -12 -11 -11 -12 -12 -12 -12 -12 -13 -12 -11 -10 -9 -10 -10 -10 -11 -11 -10 -10 -10 -10 -11 -11 -10 -10 -10 -10 -10 -11 -11 -10 -10 -11 -11 -13
-4 -6 -8 -9 -8 -6 -5 -6 -7 -8 -8 -8 -9 -9 -13 -14 -14 -14 -14 -15 -14 -13 -13 -13 -13 -13 -12 -11 -10 -9 -9 -9 -10 -10 -12 -12 -11 -10 -11 -11 -10 -10 -10 -10 -10 -11 -11 -11 -11 -11 -11 -13 -17 -21
-7 -8 -7 -6 -5 -5 -5 -5 -6 -7 -7 -8 -7 -10 -10 -12 -13 -14 -16 -14 -13 -13 -14 -14 -14 -13 -13 -12 -11 -11 -11 -10 -10 -11 -11 -11 -11 -11 -11 -11 -10 -11 -11 -11 -11 -11 -12 -12 -13 -16 -22 -22 -22 -22
-8 -8 -8 -8 -6 -6 -5 -5 -5 -6 -7 -7 -8 -10 -11 -11 -13 -17 -14 -14 -14 -15 -14 -14 -14 -13 -13 -13 -12 -12 -12 -11 -12 -12 -11 -11 -11 -11 -11 -11 -11 -11 -11 -12 -12 -12 -14 -16 -20 -22 -23 -23 -24 -23
-9 -9 -9 -8 -9 -10 -9 -8 -9 -9 -10 -8 -7 -9 -10 -11 -14 -14 -14 -14 -15 -15 -14 -14 -13 -13 -13 -13 -13 -13 -13 -13 -13 -13 -13 -12 -12 -12 -12 -12 -12 -12 -12 -14 -17 -19 -20 -21 -22 -24 -24 -26 -26 -27
-12 -11 -11 -13 -11 -12 -13 -14 -13 -11 -10 -10 -10 -11 -12 -14 -14 -15 -15 -15 -16 -15 -15 -14 -14 -14 -15 -14 -14 -14 -13 -13 -13 -13 -14 -13 -13 -13 -13 -13 -14 -18 -19 -22 -21 -22 -22 -23 -24 -25 -26 -28 -30 -31
-13 -12 -13 -14 -13 -14 -13 -16 -16 -15 -16 -15 -14 -14 -17 -17 -17 -15 -15 -15 -16 -16 -15 -15 -15 -15 -15 -15 -15 -14 -14 -14 -13 -14 -14 -14 -14 -13 -14 -14 -15 -18 -20 -20 -22 -23 -24 -24 -25 -27 -28 -28 -29 -31
-15 -17 -15 -14 -13 -15 -17 -16 -16 -18 -18 -18 -19 -21 -21 -20 -19 -15 -15 -16 -16 -16 -15 -15 -14 -14 -15 -15 -15 -15 -14 -14 -14 -14 -15 -14 -14 -15 -16 -18 -23 -25 -25 -24 -23 -23 -24 -24 -25 -26 -28 -28 -27 -26
-15 -16 -18 -16 -15 -16 -22 -20 -20 -19 -18 -15 -18 -21 -22 -22 -17 -16 -16 -16 -16 -15 -15 -15 -15 -15 -15 -15 -15 -16 -18 -19 -19 -19 -22 -22 -23 -23 -22 -23 -23 -24 -25 -25 -24 -24 -24 -25 -25 -27 -28 -29 -30 -30
-15 -16 -17 -20 -16 -16 -16 -21 -18 -16 -16 -16 -23 -21 -16 -16 -16 -16 -16 -16 -16 -15 -15 -15 -15 -15 -15 -15 -17 -18 -18 -20 -22 -25 -27 -27 -27 -26 -27 -27 -27 -25 -25 -25 -26 -26 -25 -26 -27 -29 -29 -29 -29 -29
-16 -16 -16 -16 -19 -18 -16 -16 -16 -16 -16 -16 -16 -16 -16 -16 -16 -16 -16 -16 -15 -15 -15 -15 -17 -24 -23 -19 -20 -20 -20 -19 -19 -21 -24 -27 -27 -28 -28 -28 -27 -27 -27 -28 -27 -27 -28 -28 -28 -28 -27 -27 -27 -27
-15 -16 -15 -15 -17 -16 -16 -17 -16 -17 -17 -17 -17 -17 -17 -16 -16 -16 -16 -16 -16 -16 -16 -16 -16 -17 -26 -26 -26 -27 -28 -28 -29 -29 -29 -28 -29 -29 -29 -29 -28 -28 -28 -27 -27 -27 -27 -27 -26 -26 -26 -27 -27 -27
-16 -16 -16 -18 -15 -15 -15 -15 -16 -16 -16 -17 -16 -17 -16 -17 -17 -17 -16 -16 -16 -16 -16 -16 -16 -20 -28 -30 -29 -29 -29 -29 -30 -30 -30 -30 -29 -29 -28 -29 -29 -29 -28 -28 -28 -28 -27 -27 -27 -27 -27 -27 -27 -27
-15 -15 -15 -14 -14 -14 -14 -13 -14 -14 -14 -15 -15 -15 -16 -16 -17 -17 -17 -16 -16 -17 -17 -17 -17 -21 -29 -29 -28 -28 -29 -29 -29 -29 -28 -28 -28 -28 -28 -28 -28 -28 -28 -28 -28 -28 -28 -27 -27 -27 -27 -27 -27 -27